Location: Unspecified
(0.0000°N, 0.0000°E)
Time: 07:41:53
(UTC+00:00)

Tiros 1 despin weight - All Passes

Search period start: 03 April 2020 00:00
Search period end: 13 April 2020 00:00
Orbit: 593 x 642 km, 48.2° (Epoch: 02 April)

Date Brightness Start Highest point End Pass type
(mag) Time Alt. Az. Time Alt. Az. Time Alt. Az.
03 Apr - 05:24:19 10° SW 05:28:48 76° SE 05:33:20 10° NE visible
03 Apr - 17:32:39 10° NW 17:37:12 64° SW 17:41:41 10° SSE daylight
04 Apr - 04:01:13 10° SSE 04:03:52 15° SE 04:06:32 10° E visible
04 Apr - 05:41:05 10° WSW 05:45:15 38° NW 05:49:28 10° NNE visible
04 Apr - 16:08:27 10° N 16:12:16 25° NE 16:16:02 10° ESE daylight
04 Apr - 17:49:59 10° WNW 17:53:39 23° SW 17:57:17 10° S daylight
05 Apr - 04:16:09 10° SSW 04:20:21 40° SE 04:24:36 10° ENE visible
05 Apr - 05:59:17 10° W 06:01:46 15° NW 06:04:16 10° NNW daylight
05 Apr - 16:24:09 10° NNW 16:28:44 70° NE 16:33:16 10° SE daylight
06 Apr - 04:32:21 10° SW 04:36:48 70° NW 04:41:18 10° NNE visible
06 Apr - 15:01:07 10° NNE 15:03:45 15° NE 15:06:21 10° E daylight
06 Apr - 16:40:50 10° WNW 16:45:11 41° SW 16:49:29 10° SSE daylight
07 Apr - 03:08:23 10° S 03:11:54 23° SE 03:15:26 10° ENE visible
07 Apr - 04:49:35 10° WSW 04:53:16 25° NW 04:56:59 10° N visible
07 Apr - 15:15:57 10° NNW 15:20:16 38° NE 15:24:32 10° ESE daylight
07 Apr - 16:58:50 10° W 17:01:40 16° SW 17:04:28 10° SSW daylight
08 Apr - 03:23:57 10° SSW 03:28:21 63° SE 03:32:48 10° NE visible
08 Apr - 15:32:06 10° NW 15:36:43 76° SW 15:41:18 10° SE daylight
09 Apr - 02:01:22 10° SSE 02:03:25 13° SE 02:05:27 10° ESE night (unlit)
09 Apr - 03:40:34 10° WSW 03:44:48 44° NW 03:49:05 10° NNE visible
09 Apr - 14:08:09 10° N 14:11:46 22° NE 14:15:21 10° ESE daylight
09 Apr - 15:49:13 10° WNW 15:53:10 28° SW 15:57:06 10° S daylight
10 Apr - 02:15:54 10° SSW 02:19:55 34° SE 02:23:57 10° ENE night (unlit)
10 Apr - 03:58:26 10° W 04:01:18 17° NW 04:04:10 10° N visible
10 Apr - 14:23:40 10° NNW 14:28:15 59° NE 14:32:47 10° SE daylight
10 Apr - 16:08:42 10° WSW 16:09:42 11° SW 16:10:41 10° SW daylight
11 Apr - 02:31:55 10° SW 02:36:21 83° NW 02:40:49 10° NE night (unlit)
11 Apr - 13:01:07 10° NNE 13:03:14 13° NE 13:05:21 10° ENE daylight
11 Apr - 14:40:12 10° NW 14:44:42 49° SW 14:49:09 10° SSE daylight
12 Apr - 01:08:16 10° S 01:11:26 19° SE 01:14:38 10° E night (unlit)
12 Apr - 02:48:58 10° WSW 02:52:49 29° NW 02:56:41 10° N night (unlit)
12 Apr - 13:15:34 10° NNW 13:19:46 33° NE 13:23:56 10° ESE daylight
12 Apr - 14:57:53 10° W 15:01:09 19° SW 15:04:26 10° S daylight
